This is the latest recevied weather packets stored in our database for station/object KO4T-4. If no packets are shown the sender has not sent any weather packets the latest 10 day(s).
| Time | Temp. | Humidity | Pressure | Rain* | Wind** | Luminosity | Snow |
|---|---|---|---|---|---|---|---|
| 1777562404 | 20° C | 59% | 1011.5 hPa | 0 mm | - | - | - |
| 1777562103 | 20° C | 61% | 1011.6 hPa | 0 mm | - | - | - |
| 1777561804 | 19.44° C | 59% | 1011.6 hPa | 0 mm | - | - | - |
| 1777561504 | 20° C | 59% | 1011.7 hPa | 0 mm | - | - | - |
| 1777561204 | 20.56° C | 59% | 1011.7 hPa | 0 mm | - | - | - |
| 1777560904 | 20.56° C | 60% | 1011.7 hPa | 0 mm | - | - | - |
| 1777560604 | 20.56° C | 60% | 1011.8 hPa | 0 mm | - | - | - |
| 1777560304 | 20° C | 62% | 1011.9 hPa | 0 mm | - | - | - |
| 1777560004 | 19.44° C | 64% | 1011.9 hPa | 0 mm | - | - | - |
| 1777559704 | 19.44° C | 61% | 1011.9 hPa | 0 mm | - | - | - |
| 1777559404 | 19.44° C | 63% | 1011.9 hPa | 0 mm | - | - | - |
| 1777559103 | 18.89° C | 64% | 1011.8 hPa | 0 mm | - | - | - |
| 1777558804 | 18.89° C | 65% | 1011.9 hPa | 0 mm | - | - | - |
| 1777558504 | 18.33° C | 64% | 1011.9 hPa | 0 mm | - | - | - |
| 1777558204 | 18.89° C | 61% | 1011.9 hPa | 0 mm | - | - | - |
| 1777557904 | 18.89° C | 65% | 1011.9 hPa | 0 mm | - | - | - |
| 1777557604 | 18.89° C | 68% | 1012 hPa | 0 mm | - | - | - |
| 1777557304 | 18.33° C | 67% | 1012 hPa | 0 mm | - | - | - |
| 1777557003 | 18.33° C | 68% | 1012 hPa | 0 mm | - | - | - |
| 1777556704 | 18.33° C | 68% | 1012.1 hPa | 0 mm | - | - | - |
| 1777556404 | 17.78° C | 70% | 1012 hPa | 0 mm | - | - | - |
| 1777556103 | 17.22° C | 75% | 1012 hPa | 0 mm | - | - | - |
| 1777555804 | 16.67° C | 76% | 1012 hPa | 0 mm | - | - | - |
| 1777555504 | 16.67° C | 80% | 1012.1 hPa | 0 mm | - | - | - |
| 1777555203 | 16.11° C | 80% | 1012.1 hPa | 0 mm | - | - | - |
* Rain latest hour (hover to see other rain measurements)
** Current wind speed in m/s (hover to see current wind gust speed)